Time,TemperatureF,DewpointF,PressureIn,WindDirection,WindDirectionDegrees,WindSpeedMPH,WindSpeedGustMPH,Humidity,HourlyPrecipIn,Conditions,Clouds,dailyrainin,SoftwareType,DateUTC
2013-04-05 00:09:00,44.5,45.0,29.93,NNE,13,4.0,-999.0,100,-99.99,,,0.00,weatherlink.com 1.10,2013-04-05 07:09:00,
2013-04-05 00:24:00,44.2,44.0,29.91,NW,326,3.0,-999.0,100,-99.99,,,0.00,weatherlink.com 1.10,2013-04-05 07:24:00,
2013-04-05 00:40:00,44.1,44.0,29.91,WNW,282,6.0,-999.0,100,-99.99,,,0.00,weatherlink.com 1.10,2013-04-05 07:40:00,
2013-04-05 00:54:00,44.4,44.0,29.91,West,260,2.0,-999.0,100,-99.99,,,0.00,weatherlink.com 1.10,2013-04-05 07:54:00,
2013-04-05 01:10:00,44.4,44.0,29.91,West,260,5.0,-999.0,100,-99.99,,,0.00,weatherlink.com 1.10,2013-04-05 08:10:00,
2013-04-05 01:24:00,44.1,44.0,29.91,WNW,292,0.0,-999.0,100,-99.99,,,0.00,weatherlink.com 1.10,2013-04-05 08:24:00,
2013-04-05 01:40:00,44.4,44.0,29.91,WNW,289,6.0,-999.0,100,-99.99,,,0.00,weatherlink.com 1.10,2013-04-05 08:40:00,
2013-04-05 01:54:00,44.2,44.0,29.90,WSW,243,4.0,-999.0,100,-99.99,,,0.00,weatherlink.com 1.10,2013-04-05 08:54:00,
2013-04-05 02:10:00,44.2,44.0,29.90,NNW,343,5.0,-999.0,100,-99.99,,,0.00,weatherlink.com 1.10,2013-04-05 09:10:00,
2013-04-05 02:24:00,44.0,44.0,29.90,North,357,5.0,-999.0,100,-99.99,,,0.00,weatherlink.com 1.10,2013-04-05 09:24:00,
2013-04-05 02:55:00,43.2,43.0,29.89,WNW,296,11.0,-999.0,100,-99.99,,,0.00,weatherlink.com 1.10,2013-04-05 09:55:00,
2013-04-05 05:09:00,41.8,42.0,29.91,North,349,16.0,-999.0,100,-99.99,,,0.00,weatherlink.com 1.10,2013-04-05 12:09:00,
2013-04-05 05:24:00,41.8,42.0,29.92,North,359,11.0,-999.0,100,-99.99,,,0.00,weatherlink.com 1.10,2013-04-05 12:24:00,
2013-04-05 05:39:00,41.8,42.0,29.92,NW,312,6.0,-999.0,100,-99.99,,,0.00,weatherlink.com 1.10,2013-04-05 12:39:00,
2013-04-05 05:54:00,41.7,42.0,29.93,NW,323,1.0,-999.0,100,-99.99,,,0.01,weatherlink.com 1.10,2013-04-05 12:54:00,
2013-04-05 06:09:00,41.7,42.0,29.93,NNW,335,2.0,-999.0,100,-99.99,,,0.01,weatherlink.com 1.10,2013-04-05 13:09:00,
2013-04-05 06:24:00,41.7,42.0,29.95,SW,230,0.0,-999.0,100,-99.99,,,0.01,weatherlink.com 1.10,2013-04-05 13:24:00,
2013-04-05 06:39:00,41.7,42.0,29.95,WNW,292,0.0,-999.0,100,-99.99,,,0.01,weatherlink.com 1.10,2013-04-05 13:39:00,
2013-04-05 06:54:00,41.5,42.0,29.95,NW,309,0.0,-999.0,100,-99.99,,,0.01,weatherlink.com 1.10,2013-04-05 13:54:00,
2013-04-05 07:09:00,41.5,42.0,29.95,NNW,328,0.0,-999.0,100,-99.99,,,0.01,weatherlink.com 1.10,2013-04-05 14:09:00,
2013-04-05 07:24:00,41.7,42.0,29.96,WNW,295,1.0,-999.0,100,-99.99,,,0.01,weatherlink.com 1.10,2013-04-05 14:24:00,
2013-04-05 07:54:00,42.1,42.0,29.96,WNW,295,7.0,-999.0,100,-99.99,,,0.02,weatherlink.com 1.10,2013-04-05 14:54:00,
2013-04-05 08:09:00,42.0,42.0,29.95,WNW,282,2.0,-999.0,100,-99.99,,,0.02,weatherlink.com 1.10,2013-04-05 15:09:00,
2013-04-05 08:24:00,41.8,42.0,29.96,NW,306,6.0,-999.0,100,-99.99,,,0.02,weatherlink.com 1.10,2013-04-05 15:24:00,
2013-04-05 08:39:00,41.8,42.0,29.95,WSW,240,5.0,-999.0,100,-99.99,,,0.02,weatherlink.com 1.10,2013-04-05 15:39:00,
2013-04-05 08:54:00,41.8,42.0,29.96,NNW,332,5.0,-999.0,100,-99.99,,,0.02,weatherlink.com 1.10,2013-04-05 15:54:00,
2013-04-05 09:09:00,41.8,42.0,29.97,NNW,328,0.0,-999.0,100,-99.99,,,0.02,weatherlink.com 1.10,2013-04-05 16:09:00,
2013-04-05 09:24:00,41.5,42.0,29.99,North,350,3.0,-999.0,100,-99.99,,,0.02,weatherlink.com 1.10,2013-04-05 16:24:00,
2013-04-05 09:39:00,41.5,42.0,29.99,WNW,299,10.0,-999.0,100,-99.99,,,0.02,weatherlink.com 1.10,2013-04-05 16:39:00,
2013-04-05 09:54:00,41.7,42.0,29.98,West,278,0.0,-999.0,100,-99.99,,,0.02,weatherlink.com 1.10,2013-04-05 16:54:00,
2013-04-05 10:09:00,41.4,41.0,29.99,NNE,27,7.0,-999.0,100,-99.99,,,0.02,weatherlink.com 1.10,2013-04-05 17:09:00,
2013-04-05 10:24:00,41.4,41.0,29.99,ESE,119,3.0,-999.0,100,-99.99,,,0.02,weatherlink.com 1.10,2013-04-05 17:24:00,
2013-04-05 10:39:00,41.1,41.0,29.99,NE,56,2.0,-999.0,100,-99.99,,,0.02,weatherlink.com 1.10,2013-04-05 17:39:00,
2013-04-05 10:54:00,41.4,41.0,30.00,ENE,78,2.0,-999.0,100,-99.99,,,0.02,weatherlink.com 1.10,2013-04-05 17:54:00,
2013-04-05 11:09:00,41.7,42.0,29.99,West,268,0.0,-999.0,100,-99.99,,,0.02,weatherlink.com 1.10,2013-04-05 18:09:00,
2013-04-05 11:25:00,41.7,42.0,30.00,West,281,0.0,-999.0,100,-99.99,,,0.02,weatherlink.com 1.10,2013-04-05 18:25:00,
2013-04-05 11:39:00,41.1,41.0,30.01,NW,326,9.0,-999.0,100,-99.99,,,0.03,weatherlink.com 1.10,2013-04-05 18:39:00,
2013-04-05 11:54:00,41.1,41.0,30.01,WNW,298,3.0,-999.0,100,-99.99,,,0.03,weatherlink.com 1.10,2013-04-05 18:54:00,
2013-04-05 12:09:00,41.2,41.0,30.01,WNW,301,6.0,-999.0,100,-99.99,,,0.04,weatherlink.com 1.10,2013-04-05 19:09:00,
2013-04-05 12:39:00,41.7,42.0,30.00,ENE,64,0.0,-999.0,100,-99.99,,,0.04,weatherlink.com 1.10,2013-04-05 19:39:00,
2013-04-05 12:54:00,42.0,42.0,30.00,NNE,18,2.0,-999.0,100,-99.99,,,0.05,weatherlink.com 1.10,2013-04-05 19:54:00,
2013-04-05 13:09:00,42.0,42.0,30.00,WSW,246,2.0,-999.0,100,-99.99,,,0.05,weatherlink.com 1.10,2013-04-05 20:09:00,
2013-04-05 13:24:00,41.8,42.0,29.99,North,0,1.0,-999.0,100,-99.99,,,0.05,weatherlink.com 1.10,2013-04-05 20:24:00,
2013-04-05 13:39:00,41.8,42.0,29.99,WSW,257,1.0,-999.0,100,-99.99,,,0.05,weatherlink.com 1.10,2013-04-05 20:39:00,
2013-04-05 13:54:00,42.7,43.0,29.98,North,352,2.0,-999.0,100,-99.99,,,0.05,weatherlink.com 1.10,2013-04-05 20:54:00,
2013-04-05 14:09:00,42.2,42.0,29.98,NNW,332,2.0,-999.0,100,-99.99,,,0.05,weatherlink.com 1.10,2013-04-05 21:09:00,
2013-04-05 14:24:00,42.4,42.0,29.98,North,0,2.0,-999.0,100,-99.99,,,0.05,weatherlink.com 1.10,2013-04-05 21:24:00,
2013-04-05 14:39:00,42.1,42.0,29.99,NW,315,8.0,-999.0,100,-99.99,,,0.05,weatherlink.com 1.10,2013-04-05 21:39:00,
2013-04-05 14:54:00,41.8,42.0,29.99,WNW,302,5.0,-999.0,100,-99.99,,,0.05,weatherlink.com 1.10,2013-04-05 21:54:00,
2013-04-05 15:09:00,42.4,42.0,29.99,WNW,298,0.0,-999.0,100,-99.99,,,0.05,weatherlink.com 1.10,2013-04-05 22:09:00,
2013-04-05 15:25:00,42.2,42.0,30.00,SE,141,5.0,-999.0,100,-99.99,,,0.05,weatherlink.com 1.10,2013-04-05 22:25:00,
2013-04-05 15:39:00,41.8,42.0,30.00,WNW,299,1.0,-999.0,100,-99.99,,,0.05,weatherlink.com 1.10,2013-04-05 22:39:00,
2013-04-05 15:54:00,41.7,42.0,30.01,West,260,5.0,-999.0,100,-99.99,,,0.05,weatherlink.com 1.10,2013-04-05 22:54:00,
2013-04-05 16:09:00,41.1,41.0,29.99,NW,326,2.0,-999.0,100,-99.99,,,0.05,weatherlink.com 1.10,2013-04-05 23:09:00,
2013-04-05 16:24:00,41.0,41.0,30.00,SSW,200,2.0,-999.0,100,-99.99,,,0.05,weatherlink.com 1.10,2013-04-05 23:24:00,
2013-04-05 16:39:00,40.7,41.0,29.99,NW,311,3.0,-999.0,100,-99.99,,,0.05,weatherlink.com 1.10,2013-04-05 23:39:00,
2013-04-05 16:54:00,40.4,40.0,29.99,NW,318,0.0,-999.0,100,-99.99,,,0.05,weatherlink.com 1.10,2013-04-05 23:54:00,
2013-04-05 17:10:00,40.2,40.0,30.00,North,352,6.0,-999.0,100,-99.99,,,0.05,weatherlink.com 1.10,2013-04-06 00:10:00,
2013-04-05 17:24:00,40.5,41.0,29.99,South,181,1.0,-999.0,100,-99.99,,,0.05,weatherlink.com 1.10,2013-04-06 00:24:00,
2013-04-05 17:39:00,41.0,41.0,29.98,East,96,0.0,-999.0,100,-99.99,,,0.05,weatherlink.com 1.10,2013-04-06 00:39:00,
2013-04-05 18:10:00,40.8,41.0,29.98,NNW,328,0.0,-999.0,100,-99.99,,,0.05,weatherlink.com 1.10,2013-04-06 01:10:00,
2013-04-05 18:24:00,41.0,41.0,29.97,WNW,288,5.0,-999.0,100,-99.99,,,0.05,weatherlink.com 1.10,2013-04-06 01:24:00,
2013-04-05 18:39:00,41.0,41.0,29.96,SW,219,7.0,-999.0,100,-99.99,,,0.05,weatherlink.com 1.10,2013-04-06 01:39:00,
2013-04-05 18:54:00,41.0,41.0,29.97,North,0,13.0,-999.0,100,-99.99,,,0.05,weatherlink.com 1.10,2013-04-06 01:54:00,
2013-04-05 19:09:00,40.7,41.0,29.97,North,352,12.0,-999.0,100,-99.99,,,0.05,weatherlink.com 1.10,2013-04-06 02:09:00,
2013-04-05 19:24:00,40.5,41.0,29.97,ENE,66,0.0,-999.0,100,-99.99,,,0.05,weatherlink.com 1.10,2013-04-06 02:24:00,
2013-04-05 19:39:00,40.5,41.0,29.96,NNE,14,6.0,-999.0,100,-99.99,,,0.05,weatherlink.com 1.10,2013-04-06 02:39:00,
2013-04-05 19:54:00,40.4,40.0,29.97,NE,48,13.0,-999.0,100,-99.99,,,0.05,weatherlink.com 1.10,2013-04-06 02:54:00,
2013-04-05 20:09:00,40.5,41.0,29.97,NNW,337,7.0,-999.0,100,-99.99,,,0.05,weatherlink.com 1.10,2013-04-06 03:09:00,
2013-04-05 20:25:00,40.2,40.0,29.98,NE,35,8.0,-999.0,100,-99.99,,,0.05,weatherlink.com 1.10,2013-04-06 03:25:00,
2013-04-05 20:39:00,40.1,40.0,29.99,NNE,30,5.0,-999.0,100,-99.99,,,0.05,weatherlink.com 1.10,2013-04-06 03:39:00,
2013-04-05 20:54:00,40.4,40.0,30.00,South,171,6.0,-999.0,100,-99.99,,,0.05,weatherlink.com 1.10,2013-04-06 03:54:00,
2013-04-05 21:09:00,40.5,41.0,30.00,NE,45,2.0,-999.0,100,-99.99,,,0.05,weatherlink.com 1.10,2013-04-06 04:09:00,
2013-04-05 21:24:00,40.7,41.0,30.02,NW,311,0.0,-999.0,100,-99.99,,,0.05,weatherlink.com 1.10,2013-04-06 04:24:00,
2013-04-05 21:39:00,40.7,41.0,30.03,West,281,0.0,-999.0,100,-99.99,,,0.05,weatherlink.com 1.10,2013-04-06 04:39:00,
2013-04-05 21:54:00,40.4,40.0,30.04,WNW,292,3.0,-999.0,100,-99.99,,,0.05,weatherlink.com 1.10,2013-04-06 04:54:00,
2013-04-05 22:10:00,40.4,40.0,30.04,NNW,343,3.0,-999.0,100,-99.99,,,0.05,weatherlink.com 1.10,2013-04-06 05:10:00,
2013-04-05 22:24:00,40.5,41.0,30.03,North,357,18.0,-999.0,100,-99.99,,,0.05,weatherlink.com 1.10,2013-04-06 05:24:00,
2013-04-05 22:39:00,40.7,41.0,30.02,North,4,8.0,-999.0,100,-99.99,,,0.05,weatherlink.com 1.10,2013-04-06 05:39:00,
2013-04-05 22:55:00,40.8,41.0,30.02,North,0,1.0,-999.0,100,-99.99,,,0.05,weatherlink.com 1.10,2013-04-06 05:55:00,
2013-04-05 23:10:00,41.0,41.0,30.01,WNW,288,7.0,-999.0,100,-99.99,,,0.05,weatherlink.com 1.10,2013-04-06 06:10:00,
2013-04-05 23:25:00,41.1,41.0,30.01,North,1,2.0,-999.0,100,-99.99,,,0.05,weatherlink.com 1.10,2013-04-06 06:25:00,
2013-04-05 23:40:00,41.2,41.0,30.03,WSW,254,12.0,-999.0,100,-99.99,,,0.05,weatherlink.com 1.10,2013-04-06 06:40:00,
2013-04-05 23:55:00,41.2,41.0,30.02,WNW,285,6.0,-999.0,100,-99.99,,,0.05,weatherlink.com 1.10,2013-04-06 06:55:00,